#timestamp,LO_Frequency,Hit,StdDev 
1583748015.2,286047005.4,P
1583748035.0,286047003.9,N
1583748035.9,286047003.9,N
1583748055.8,286047006.8,Y
1583748075.6,286046999.9,P
1583748095.5,286047000.7,N
1583748115.3,286047002.2,N
1583748135.1,286047007.1,Y
1583748155.9,286047005.2,P
1583748175.7,286047005.1,N
1583748195.6,286047006.0,P
1583748215.4,286047002.3,N
1583748235.2,286047003.3,N
1583748255.1,286047007.3,Y
1583748256.0,286047007.3,P
1583748275.8,286047005.0,N
1583748295.7,286047010.6,P
1583748315.5,286047004.1,N
1583748335.3,286047002.0,N
1583748355.2,286047000.7,N
1583748375.0,286046995.1,N
1583748375.9,286046995.1,N
1583748395.7,286046994.5,N
1583748415.6,286046993.8,N
1583748435.4,286046990.9,N
1583748455.3,286046985.6,N
1583748475.1,286046980.0,N
1583748476.0,286046980.0,N
1583748495.8,286046979.6,N
1583748515.7,286046976.1,N
1583748535.5,286046980.3,N
1583748555.3,286046977.9,N
1583748575.2,286046976.9,N
1583748595.0,286046973.2,N
1583748595.9,286046973.2,N
1583748615.8,286046971.1,N
1583748635.6,286046973.7,N
1583748655.4,286046967.7,N
1583748675.3,286046965.2,N
1583748695.1,286046963.0,N
1583748715.9,286046964.3,N
1583748735.7,286046962.6,N
1583748755.5,286046961.9,N
1583748775.4,286046963.1,N
1583748795.2,286046968.2,N
1583748815.0,286046974.0,N
1583748815.9,286046974.0,N
1583748835.8,286046976.2,N
1583748855.6,286046984.8,N
1583748875.5,286046982.3,N
1583748895.3,286046981.1,N
1583748915.1,286046986.0,N
1583748935.9,286046988.7,N
1583748955.7,286046997.5,N
1583748975.6,286047000.7,N
1583748995.4,286047000.4,N
1583749015.3,286046998.2,N
1583749035.1,286046998.9,N
1583749036.0,286046998.9,N
1583749055.8,286046995.7,N
1583749075.7,286046997.2,N
1583749095.5,286046992.3,N
1583749115.3,286046985.7,N
1583749135.2,286046983.0,N
1583749155.0,286046985.3,N
1583749155.9,286046985.3,N
1583749175.8,286046985.3,N
1583749195.6,286046988.4,N
1583749215.5,286046986.4,N
1583749235.3,286046983.5,N
1583749255.1,286046976.9,N
1583749275.9,286046976.5,N
1583749295.7,286046974.8,N
1583749315.6,286046969.5,Y
1583749335.4,286046979.3,P
1583749355.2,286046975.4,P
1583749375.1,286046973.9,P
1583749376.0,286046973.9,Y
1583749395.8,286046991.9,P
1583749415.6,286046994.4,N
1583749435.5,286046992.5,N
1583749455.3,286046987.0,N
1583749475.2,286046984.8,N
1583749495.9,286046986.3,N
1583749515.7,286046987.2,N
1583749535.6,286046987.9,N
1583749555.4,286046982.8,Y
1583749575.2,286046991.7,P
1583749595.1,286046998.0,N
1583749596.0,286046998.0,N
1583749615.8,286046994.7,N
1583749635.7,286046990.7,N
1583749655.5,286046986.4,Y
1583749675.3,286046997.8,P
1583749695.2,286047001.8,N
1583749715.0,286047012.0,P
1583749715.9,286047012.0,N
1583749735.8,286047006.3,N
1583749755.6,286047005.5,N
1583749775.4,286047002.1,N
1583749795.3,286047005.9,N
1583749815.1,286047001.9,N
1583749835.8,286046996.8,N
1583749855.7,286046995.9,N
1583749875.5,286046992.5,N
1583749895.4,286046989.4,N
1583749915.2,286046988.4,N
1583749935.0,286046986.3,N
1583749935.9,286046986.3,N
1583749955.8,286046982.5,N
1583749975.6,286046986.8,N
1583749995.4,286046982.6,N
1583750015.3,286046981.8,N
1583750035.1,286046984.9,N
1583750055.9,286046981.3,N
1583750075.7,286046977.0,N
1583750095.5,286046975.4,N
1583750115.4,286046974.4,N
1583750135.2,286046976.4,N
1583750155.1,286046976.3,N
1583750156.0,286046976.3,N
1583750175.8,286046978.8,N
1583750195.6,286046975.7,N
1583750215.5,286046979.1,N
1583750235.3,286046979.0,N
1583750255.1,286046980.9,N
1583750275.9,286046979.5,N
1583750295.7,286046976.4,N
1583750315.6,286046971.4,Y
1583750335.4,286046986.3,P
1583750355.2,286046986.6,P
1583750375.1,286046984.4,P
1583750376.0,286046984.4,Y
1583750395.8,286047000.4,P
1583750415.7,286046998.6,N
1583750435.5,286046996.8,N
1583750455.3,286046996.9,N
1583750475.2,286046994.9,N
1583750495.0,286046999.2,N
1583750495.9,286046999.2,N
1583750515.8,286047002.8,N
1583750535.6,286046997.9,N
1583750555.4,286046997.1,N
1583750575.3,286046997.0,N
1583750595.1,286046995.6,N
1583750615.9,286046994.4,N
1583750635.7,286046995.8,N
1583750655.5,286046993.6,N
1583750675.4,286046996.4,N
1583750695.2,286046991.7,N
1583750715.0,286046991.3,N
1583750715.9,286046991.3,N
1583750735.8,286046993.1,N
1583750755.6,286046995.7,N
1583750775.5,286046993.6,N
1583750795.3,286046990.5,N
1583750815.1,286046988.0,Y
1583750835.9,286046993.1,P
1583750855.7,286046992.0,P
1583750875.6,286046998.9,N
1583750895.4,286046997.8,N
1583750915.2,286046993.3,N
1583750935.1,286046988.9,Y
1583750936.0,286046988.9,P
1583750955.8,286046990.3,P
1583750975.6,286046990.1,P
1583750995.5,286046994.3,N
1583751015.3,286046993.0,N
1583751035.2,286046995.8,N
1583751055.9,286046992.9,N
1583751075.7,286046992.0,Y
1583751095.6,286047002.5,P
1583751115.4,286047004.7,N
1583751135.3,286047003.5,N
1583751155.1,286047001.4,N
1583751156.0,286047001.4,N
1583751175.8,286047006.6,N
1583751195.7,286047008.5,N
1583751215.5,286047007.5,N
1583751235.3,286047008.9,N
1583751255.2,286047009.3,N
1583751275.0,286046993.7,N
1583751275.9,286046993.7,N
1583751295.8,286046998.9,N
1583751315.6,286046997.5,N
1583751335.4,286046998.3,N
1583751355.3,286046997.1,N
1583751375.1,286046996.5,N
1583751395.8,286046995.0,N
1583751415.7,286046995.9,N
1583751435.5,286046997.7,N
1583751455.4,286046995.5,N
1583751475.2,286046997.4,N
1583751495.0,286047000.2,N
1583751495.9,286047000.2,N
1583751515.8,286047003.0,N
1583751535.6,286047002.9,N
1583751555.4,286047004.4,N
1583751575.3,286047001.7,N
1583751595.1,286047006.0,N
